slypieguy's sites:

title views votes rating creation
?The Jihad's Next Target 5,988 147 (3.62)  2006-08-27
?Medieval tech support is NOT the answer.. 2,571 40 (3.88)  2006-08-28
?Some call it Ernesto... 728 21 (3.33)  2006-08-29
?test 354 10 (2.20)  2006-08-29
?lol, DUI 895 20 (2.75)  2006-08-31
?That's the law 652 13 (3.46)  2006-08-31
?Scientology is NOT the answer 811 28 (3.61)  2006-08-31
?It's HOT 964 31 (3.61)  2006-09-01
?Asian happy cat 4,222 54 (3.96)  2006-09-01
?Gravity cat is... stuck 1,815 42 (3.48)  2006-09-01
?omg breaking news 620 20 (2.90)  2006-09-01
?Remember old school fundamentals 1,204 26 (3.42)  2006-09-01
?Pluto will fight! v.3 621 18 (3.72)  2006-09-02
?GAYTMND soap dispenser 1,068 25 (3.28)  2006-09-02
?Howard Dean is... 8,443 66 (4.27)  2006-09-02
?System of a Down Paradox 956 28 (2.82)  2006-09-02
?You have one of those? (attempted loop) 4,268 105 (3.70)  2006-09-03
?Now you're bakin' me toasty 851 21 (3.48)  2006-09-03
?Damn Tokyo DoT 619 18 (3.00)  2006-09-03
?Tragedy on Sesame St. 999 25 (3.20)  2006-09-04
?Tribute to Wayne Static and Serj Tankian 1,577 19 (3.42)  2006-09-04
?Homer forgot Poland 737 35 (3.17)  2006-09-05
?How to REALLY impress samurai 14,600 459 (4.07)  2006-09-06
?Cyberman Raves 631 37 (3.59)  2006-09-08
?OMG secret Jewish textbook 3,319 101 (3.77)  2006-09-08
?Gandalf learns of the Senate immigration bill 936 15 (3.53)  2006-09-08
?lazyPod 2.0 (100% less out of tune) 1,160 46 (3.83)  2006-09-13
?Bazooka girl! 1,228 29 (3.83)  2006-09-13
?Mankind is Doomed (maybe) 12,039 398 (3.98)  2006-09-18
?J-pop Explained 2,389 148 (3.78)  2006-09-19
?Nelson draws futurama's existence 12,501 466 (3.95)  2006-09-20
?Max trying to tell us something? 621 20 (3.65)  2006-09-24
?Bazooka Girl 2.0 (in battle) 1,233 20 (3.95)  2006-09-24
?Need Directions?? 749 27 (3.89)  2006-10-28
?(nsfw) Playing with the wii (lol, pun) 23,183 422 (4.02)  2006-11-10
?Excelite and torn lions 2,352 46 (3.83)  2006-11-11
?Secret is Out, Alternate Ending 1,211 58 (3.78)  2006-11-30
?Nagin Addresses Congress (now with echo) 7,319 330 (4.20)  2007-01-07
?OMG Secret Sony Crop Circle 937 40 (3.73)  2007-01-11
?SEGA had ONE weakness... 2,016 69 (3.74)  2007-01-11
?Silly Boris 990 31 (3.84)  2007-01-15
?(nsfw) Nigga Betrayed the Law (undubbed version) 6,724 216 (4.05)  2007-01-22
?Hey bud... how would you like to buy... 1,094 42 (3.86)  2007-02-05
?300TMND: This is.. 1,037 45 (3.58)  2007-02-19
?(nsfw) Seriously... stop looking 8,063 301 (3.82)  2007-02-20
?New Mcdonalds Ad 445 12 (1.83)  2007-02-22
?Pardon me... 877 36 (3.67)  2007-04-08
?A superior tornado warning 17,805 529 (4.31)  2007-04-27
?PTKFGS: Liberty Guaranteed 5,462 100 (3.94)  2007-05-22
?Hillary's New Tax Proposal 6,243 119 (3.36)  2007-06-02
?Poland's distant relative 931 16 (3.19)  2007-08-22
?CramerTMND: Open the window 909 10 (3.90)  2007-08-24
?A superior HURRICANE warning 594 15 (3.53)  2007-08-24
?Ron Paul rEVOLution 3,052 29 (3.62)  2007-08-25
?Gandalf discovers a new talent 947 21 (3.52)  2007-08-26
?Tomorrow's weather calls for... WTF?! 724 17 (3.82)  2007-08-26
?When roflcat stops laughing... 564 13 (1.38)  2007-09-15
?I went to UF and all I got was tasered 1,014 15 (3.53)  2007-09-18
?Is America ready for a bat president? 11,393 347 (3.90)  2007-09-26
?A threat ignored 851 8 (2.00)  2007-10-21
?Hitler is not the magic word 2,307 16 (3.25)  2007-11-29
?Feature user is credit to team 671 19 (2.53)  2008-04-28
?McCain'd 1,153 34 (3.53)  2008-10-16
?Max's solution to featured users 576 10 (3.00)  2008-12-05
?It's the end of the Brak as we know it 545 8 (3.25)  2008-12-05
?Epic Max Maneuver 655 11 (2.82)  2008-12-07
?TOURNAMENTMND1: Guess what Chad 771 19 (2.79)  2008-12-08
?Greed Stares Into Your Soul 877 14 (3.21)  2008-12-11
?(nsfw) The Jap Fapper (press esc to fap) 2,987 18 (3.61)  2008-12-15
?TOURNAMENTMND2: Finish him! 759 17 (3.65)  2009-01-15